Showing default

SNUGLITE, 43784

Orbit data source: Space-Track

SNUGLITE, 43784 is a payload satellite owned by SNU (KR) in SSO that was launched on Mon, 03 Dec 2018 UTC via an FALCON 9 launch vehicle from the Air Force Western Test Range (AFWTR). Payload-class satellites include a variety of spacecraft equipped with specific instruments for various scientific and technological missions. These include communications satellites like Starlink; space stations such as the ISS; scientific satellites like the Hubble; Earth observation satellites from companies like Planet Labs, Umbra, and HawkEye 360; GPS; miniature CubeSats for education and research; and military/defense satellites.

Loading next visibility...
Identifier
43784, 2018-099AC
Orbit
SSO
Last TLE update
8 hours ago
Origin
Manufacturer
SNU
Mission
Operational Amateur Technology
Bus & Motor
CUBESAT 2U, Unknown motor
Mass
2 kg wet, 2 kg dry
Launch date (UTC)
2018-12-03 (7 years ago)
Launch vehicle
FALCON 9
Launch site
Air Force Western Test Range (AFWTR)
Object type
Payload
Rocket body
Debris
Shape & HBR
Box + 1 Rod, 0.4 m
Radar Cross Section
0.025 m², Small (<0.1 m²)

Expand to show TLE details & history

TLE from 8 hours ago
0 SNUGLITE
1 43784U 18099AC  25182.10616140  .00006709  00000-0  33424-3 0  9991
2 43784  97.4391 236.1363 0005085  88.3114 271.8703 15.17880333359901
Epoch: 2025-07-01T02:32Z
TLE epoch observation values (Epoch: 2025-07-01T02:32:52.344Z)
Latitude
0.00002°
Longitude
-81.48818°
Altitude
515.222 km
Speed
7.606 km/s
True Right ascension
15h 44m 32s
True Declination
0° 00' 00"
Sunlit
Object was in full shadow at epoch
Visualization orbit readout
Latitude
-71.89995°
Longitude
-57.76838°
Altitude
542.162 km
Speed
7.588 km/s
Apparent Right ascension
11h 30m 51s
Apparent Declination
-67° 00' 51"
Sunlit
Object is in full shadow
Visualization observer readout
Local Sidereal Time
21:46:32
Azimuth
199.639° SSW
Elevation
-59.287°
Doppler factor
1
Orbital elements
Apogee altitude
512.72 km
Perigee altitude
505.716 km
Semi-major axis
6,887.355 km
Eccentricity
0.00051
Inclination
97.4391°
RAAN
236.1363°
Arg. of periapsis
88.3114°
True anomaly
Unknown
Mean anomaly
271.8703°
Eccentric anomaly
Unknown
Mean motion
3.79721 °/min
Orbital period
94.81 mins
BSTAR
0.00033424
Loading maneuver chart data...
Loading SW <> Apogee altitude chart data...
Loading historical data...
Loading historical data...
Loading historical data...
Loading historical data...
Loading historical data...
Loading historical data...
Loading historical data...

SNUGLITE Visibility forecast

Observer location: undefined°, undefined°

Span
Click to sort rows by Start time (UTC) header in descending order
Start Az.
Max El. time (UTC)
Max El. Az.
Max El.
End time (UTC)
End Az.
5 mins2025-07-01 15:47:08.900Z48.461° ENE2025-07-01 15:49:08.900Z88.343° E22.081°2025-07-01 15:52:08.900Z148.266° SSE
5 mins2025-07-02 04:00:08.900Z196.367° SSW2025-07-02 04:02:08.900Z260.825° W36.472°2025-07-02 04:05:08.900Z333.196° NNW
|